[[{"header":{"parameterUnit":"m.s-1","parameterCategory":1,"la1":30.2991,"la2":30.254,"lo1":-89.0895,"lo2":-89.0444,"dy":0.0017,"dx":0.0017,"nx":28,"ny":28,"refTime":"2023-10-10T09:00:00:Z","depth":0,"parameterNumber":2,"parameterNumberName":"U-component_of_WINDS"},"data":[0,0,0,0,0,0,0,0,0,0,0,0,0,0,0,0,0,0,0,0,0,0,0,0,0,0,0,0,0,0,0,0,0,0,0,0,0,0,0,0,0,0,0,0,0,0,0,0,0,0,0,0,0,0,0,0,0,0,-0.8421,-0.8422,0,-0.8499,-0.85,-0.8501,-0.8508,-0.8507,-0.8507,-0.8506,-0.8588,-0.8591,-0.8594,0,0,0,0,0,0,0,0,0,0,0,0,0,-0.8281,-0.8284,-0.8421,-0.8422,-0.8423,-0.8499,-0.85,-0.8501,-0.8508,-0.8507,-0.8506,-0.8505,-0.8587,-0.8591,-0.8594,0,0,0,0,0,0,0,0,0,0,0,0,0,-0.8349,-0.8284,-0.8421,-0.8436,-0.8438,-0.8498,-0.85,-0.8501,-0.8509,-0.8507,-0.8506,-0.8505,-0.8586,-0.859,-0.8595,-0.8647,0,0,-0.8608,-0.861,0,0,0,0,0,0,0,0,-0.8345,-0.8354,-0.8433,-0.8435,-0.8437,-0.8492,-0.8481,-0.855,-0.8509,-0.8482,-0.8506,-0.8504,-0.8557,-0.8564,-0.8582,-0.865,-0.8654,-0.8609,-0.8611,-0.8613,-0.8614,0,0,0,0,0,0,0,-0.834,-0.8351,-0.8452,-0.8434,-0.8437,-0.8439,-0.8448,-0.8494,-0.8526,-0.8484,-0.8485,-0.8494,-0.8559,-0.8577,-0.8584,-0.8655,-0.8609,-0.8612,-0.8615,-0.8617,-0.8771,-0.8773,0,0,0,0,0,0,-0.8332,-0.8347,-0.8449,-0.8454,-0.8387,-0.8443,-0.8452,-0.8476,-0.8525,-0.8531,-0.8495,-0.8494,-0.857,-0.8578,-0.8587,-0.8651,-0.8613,-0.8617,-0.862,-0.877,-0.8772,-0.8773,0,0,0,0,0,0,-0.8329,-0.8341,-0.8446,-0.8401,-0.8414,-0.8446,-0.8473,-0.8478,-0.8497,-0.8533,-0.8539,-0.8508,-0.857,-0.858,-0.8632,-0.8654,-0.8619,-0.8623,-0.8768,-0.877,-0.8772,-0.8781,0,0,0,0,0,0,-0.8325,-0.834,-0.836,-0.8401,-0.8417,-0.8489,-0.8475,-0.8481,-0.8504,-0.8504,-0.8547,-0.8553,-0.857,-0.8625,-0.8636,-0.866,-0.8627,-0.8766,-0.8769,-0.8772,-0.8779,-0.8783,-0.8786,0,0,0,0,0,-0.832,-0.836,-0.8361,-0.8373,-0.8442,-0.8491,-0.85,-0.8517,-0.8506,-0.8526,-0.855,-0.8552,-0.8649,-0.863,-0.8643,-0.8668,-0.8765,-0.8768,-0.8771,-0.8777,-0.8782,-0.8786,0,0,0,0,0,0,-0.8322,-0.8365,-0.8367,-0.8421,-0.8452,-0.8492,-0.8518,-0.8522,-0.8557,-0.8556,-0.8576,-0.8586,-0.8637,-0.8657,-0.8635,-0.8721,-0.8706,-0.8712,-0.8706,-0.8711,-0.8715,-0.871,-0.8631,0,0,0,0,0,-0.8328,-0.8363,-0.84,-0.8444,-0.8459,-0.8486,-0.8508,-0.8518,-0.8552,-0.8565,-0.8592,-0.8625,-0.8663,-0.8688,-0.8725,-0.8781,-0.8791,-0.8805,-0.8808,-0.8812,-0.8817,-0.8849,-0.8855,-0.8784,-0.8784,-0.8784,0,0,-0.8342,-0.837,-0.8391,-0.8445,-0.847,-0.8507,-0.8497,-0.8536,-0.8565,-0.8571,-0.8622,-0.8642,-0.8681,-0.8734,-0.876,-0.8753,-0.8839,-0.8816,-0.8818,-0.8822,-0.8853,-0.8859,-0.8865,-0.8786,-0.8786,-0.8785,0,0,-0.8386,-0.841,-0.845,-0.8475,-0.8513,-0.8531,-0.854,-0.8579,-0.8593,-0.8644,-0.865,-0.8683,-0.8749,-0.8776,-0.8798,-0.8852,-0.8856,-0.8863,-0.8885,-0.8915,-0.8921,-0.8926,-0.8946,-0.8953,-0.8868,-0.8868,-0.8868,0,-0.8399,-0.8454,-0.847,-0.8509,-0.8533,-0.854,-0.858,-0.8604,-0.8653,-0.867,-0.8661,-0.8743,-0.8769,-0.883,-0.8843,-0.886,-0.8873,-0.8859,-0.8919,-0.8924,-0.8929,-0.8949,-0.8956,-0.8869,-0.8869,-0.8869,-0.8869,0,-0.8469,-0.8507,-0.8534,-0.858,-0.8606,-0.8646,-0.8669,-0.8694,-0.8702,-0.872,-0.8772,-0.8803,-0.8847,-0.8862,-0.887,-0.8924,-0.8919,-0.8914,-0.89,-0.8936,-0.8955,-0.8963,-0.887,-0.887,-0.887,-0.8869,0,0,-0.8518,-0.8571,-0.8581,-0.8602,-0.8643,-0.8674,-0.8714,-0.8756,-0.8777,-0.881,-0.8845,-0.89,-0.8896,-0.8921,-0.8933,-0.8959,-0.9001,-0.8952,-0.8953,-0.8961,-0.9063,-0.9067,-0.9075,-0.9003,-0.9004,-0.9006,-0.906,0,-0.8568,-0.8639,-0.8654,-0.8716,-0.8752,-0.8758,-0.8793,-0.8823,-0.8841,-0.8875,-0.8895,-0.8934,-0.8925,-0.8941,-0.8967,-0.899,-0.9022,-0.8986,-0.9037,-0.9039,-0.9029,-0.9085,-0.909,-0.914,-0.9068,-0.9069,-0.907,0,-0.8636,-0.867,-0.8735,-0.8772,-0.8788,-0.8819,-0.8859,-0.889,-0.8925,-0.8936,-0.8964,-0.8972,-0.9015,-0.8997,-0.9057,-0.9032,-0.9054,-0.9068,-0.9071,-0.9077,-0.9057,-0.9095,-0.9156,-0.9164,-0.9081,-0.908,-0.9079,0,-0.8667,-0.8728,-0.8775,-0.8793,-0.8837,-0.8859,-0.8879,-0.8911,-0.8936,-0.897,-0.8986,-0.9026,-0.9048,-0.9078,-0.9098,-0.9083,-0.9156,-0.914,-0.9168,-0.9168,-0.9185,-0.9184,-0.9252,-0.9196,-0.9196,-0.9196,-0.9195,0,-0.8723,-0.8763,-0.879,-0.8819,-0.8864,-0.8881,-0.8925,-0.8945,-0.8974,-0.9008,-0.9015,-0.9047,-0.9069,-0.9104,-0.9119,-0.9167,-0.9177,-0.9188,-0.9192,-0.9188,-0.9187,-0.9204,-0.9201,-0.9198,-0.9197,-0.9197,-0.9196,0,-0.8765,-0.8785,-0.8837,-0.8874,-0.8884,-0.8916,-0.8948,-0.8977,-0.8994,-0.9037,-0.9048,-0.9076,-0.9117,-0.9139,-0.9191,-0.9201,-0.9255,-0.9256,-0.9243,-0.9245,-0.9272,-0.927,-0.9355,-0.9367,-0.9302,-0.9302,-0.9303,0,-0.88,-0.8831,-0.8871,-0.8893,-0.8913,-0.8949,-0.8974,-0.8991,-0.9017,-0.9057,-0.9082,-0.9123,-0.9157,-0.9223,-0.9249,-0.9289,-0.9292,-0.9319,-0.9298,-0.9293,-0.9294,-0.9292,-0.9296,-0.9323,-0.9324,-0.9324,-0.9325,0,-0.8861,-0.8869,-0.8903,-0.8941,-0.8969,-0.9,-0.9031,-0.9049,-0.9071,-0.91,-0.9141,-0.9168,-0.922,-0.9262,-0.9303,-0.9324,-0.9329,-0.933,-0.9339,-0.9337,-0.9329,-0.9335,-0.9255,-0.9329,-0.9329,-0.9328,-0.9328,-0.9328,-0.8902,-0.8929,-0.8962,-0.9,-0.9024,-0.9052,-0.9081,-0.9102,-0.9137,-0.918,-0.9188,-0.9233,-0.9266,-0.9322,-0.9344,-0.938,-0.9375,-0.9387,-0.9391,-0.9394,-0.9396,-0.9321,-0.9388,-0.9387,-0.9387,-0.9387,-0.9387,0,-0.8964,-0.8984,-0.9019,-0.9061,-0.9091,-0.909,-0.9124,-0.915,-0.9188,-0.9218,-0.9252,-0.93,-0.934,-0.9368,-0.9409,-0.9432,-0.9435,-0.9442,-0.9442,-0.9447,-0.9398,-0.9386,-0.9439,-0.9439,-0.9439,-0.9439,-0.9439,-0.9439,-0.9,-0.9047,-0.9058,-0.9118,-0.9138,-0.9181,-0.9201,-0.9227,-0.9251,-0.9304,-0.9337,-0.9354,-0.9384,-0.9427,-0.9464,-0.9471,-0.9487,-0.9494,-0.9502,-0.9456,-0.945,-0.9445,-0.9435,-0.9497,-0.9497,-0.9548,-0.9549,-0.9549]},{"header":{"parameterUnit":"m.s-1","parameterCategory":1,"la1":30.2991,"la2":30.254,"lo1":-89.0895,"lo2":-89.0444,"dy":0.0017,"dx":0.0017,"nx":28,"ny":28,"refTime":"2023-10-10T09:00:00:Z","depth":0,"parameterNumber":3,"parameterNumberName":"V-component_of_WINDS"},"data":[0,0,0,0,0,0,0,0,0,0,0,0,0,0,0,0,0,0,0,0,0,0,0,0,0,0,0,0,0,0,0,0,0,0,0,0,0,0,0,0,0,0,0,0,0,0,0,0,0,0,0,0,0,0,0,0,0,0,2.4829,2.483,0,2.4849,2.4849,2.485,2.4808,2.4807,2.4805,2.4804,2.4822,2.4824,2.4826,0,0,0,0,0,0,0,0,0,0,0,0,0,2.4753,2.4754,2.4829,2.483,2.483,2.4849,2.4849,2.485,2.4808,2.4807,2.4805,2.4803,2.4822,2.4824,2.4826,0,0,0,0,0,0,0,0,0,0,0,0,0,2.478,2.4755,2.4829,2.4812,2.481,2.4849,2.4849,2.485,2.4809,2.4807,2.4805,2.4803,2.4821,2.4823,2.4826,2.4882,0,0,2.4834,2.4835,0,0,0,0,0,0,0,0,2.4779,2.4783,2.4814,2.4813,2.4811,2.4824,2.4829,2.4861,2.4809,2.4809,2.4804,2.4802,2.4824,2.4826,2.4835,2.4883,2.4884,2.4834,2.4836,2.4837,2.4838,0,0,0,0,0,0,0,2.4777,2.4782,2.4837,2.4814,2.4813,2.4802,2.4803,2.4835,2.4828,2.4809,2.4806,2.4809,2.4823,2.4832,2.4835,2.4884,2.4834,2.4836,2.4838,2.4839,2.4978,2.498,0,0,0,0,0,0,2.4778,2.4781,2.4836,2.4838,2.479,2.4805,2.4807,2.4822,2.4827,2.4826,2.4811,2.4807,2.4829,2.4832,2.4835,2.49,2.4837,2.4839,2.4841,2.4976,2.4979,2.4981,0,0,0,0,0,0,2.4776,2.4783,2.4836,2.4809,2.4814,2.4808,2.4826,2.4823,2.4832,2.4829,2.4827,2.4821,2.4827,2.4831,2.4871,2.49,2.484,2.4843,2.4974,2.4977,2.498,2.5031,0,0,0,0,0,0,2.4774,2.4783,2.4805,2.4809,2.4816,2.4872,2.4828,2.4825,2.4837,2.4833,2.4838,2.4837,2.4826,2.4867,2.4873,2.4902,2.4845,2.4971,2.4975,2.4979,2.5026,2.5035,2.5043,0,0,0,0,0,2.4772,2.4819,2.4806,2.4813,2.4844,2.4874,2.4877,2.4864,2.484,2.4861,2.4859,2.4837,2.4896,2.4871,2.4878,2.4908,2.4969,2.4974,2.4978,2.5023,2.5034,2.5043,0,0,0,0,0,0,2.4817,2.4819,2.4805,2.4855,2.4865,2.4867,2.4893,2.4877,2.4893,2.4887,2.487,2.4871,2.4913,2.4915,2.4887,2.4962,2.4928,2.4935,2.496,2.497,2.4978,2.4976,2.4847,0,0,0,0,0,2.4833,2.4858,2.4858,2.4902,2.4908,2.49,2.4913,2.4902,2.491,2.4914,2.4914,2.4923,2.4943,2.4957,2.4976,2.5027,2.5027,2.5051,2.506,2.5066,2.5071,2.5097,2.5107,2.4997,2.4997,2.4997,0,0,2.4866,2.487,2.4887,2.4911,2.4917,2.4942,2.4903,2.4932,2.495,2.4918,2.4955,2.4955,2.4964,2.5009,2.5029,2.5011,2.5102,2.5072,2.5078,2.5079,2.5103,2.5113,2.5123,2.5,2.4999,2.4999,0,0,2.4939,2.4945,2.4982,2.4988,2.4998,2.4993,2.5001,2.5006,2.5005,2.5042,2.5018,2.5039,2.5075,2.5081,2.5089,2.5164,2.5143,2.517,2.5213,2.5238,2.5246,2.5254,2.5279,2.5288,2.5176,2.5176,2.5176,0,2.4978,2.5016,2.5002,2.5032,2.5043,2.5016,2.5051,2.5058,2.5074,2.5081,2.5062,2.5105,2.5109,2.5155,2.5173,2.5181,2.5189,2.5169,2.5247,2.5254,2.5261,2.5284,2.5294,2.5179,2.5179,2.5178,2.5178,0,2.5063,2.5089,2.5117,2.5133,2.5147,2.518,2.517,2.5185,2.5173,2.5169,2.5206,2.521,2.5228,2.5239,2.5227,2.5282,2.5271,2.525,2.5214,2.5275,2.5296,2.5305,2.5183,2.5182,2.5181,2.5181,0,0,2.5164,2.5171,2.5181,2.5187,2.5196,2.5216,2.5247,2.5265,2.5278,2.5289,2.5313,2.5344,2.5324,2.5334,2.5323,2.5345,2.5401,2.532,2.532,2.5334,2.546,2.5474,2.5485,2.5389,2.539,2.5392,2.5458,0,2.5234,2.5288,2.5276,2.5328,2.5351,2.5326,2.5353,2.536,2.5357,2.5376,2.5372,2.5394,2.5367,2.5372,2.5393,2.539,2.5426,2.5385,2.5409,2.541,2.5406,2.5496,2.5512,2.5575,2.5467,2.5468,2.5469,0,2.5323,2.5338,2.5392,2.5396,2.5405,2.543,2.5444,2.5463,2.5471,2.5467,2.5477,2.5461,2.5491,2.5457,2.5496,2.5469,2.5478,2.5478,2.548,2.548,2.5442,2.5497,2.5595,2.5603,2.5483,2.5482,2.5481,0,2.5389,2.5422,2.5459,2.5465,2.5471,2.5488,2.5491,2.5497,2.5508,2.5521,2.5528,2.5544,2.5553,2.5565,2.5554,2.5531,2.5594,2.556,2.5591,2.5591,2.5604,2.5603,2.5702,2.5613,2.5613,2.5613,2.5613,0,2.5467,2.5501,2.5488,2.5511,2.5547,2.5533,2.557,2.557,2.5575,2.5596,2.5575,2.5595,2.558,2.5598,2.559,2.5622,2.5627,2.5624,2.5621,2.5625,2.5625,2.5629,2.5624,2.5615,2.5615,2.5614,2.5614,0,2.5546,2.5539,2.5577,2.5579,2.558,2.5607,2.5608,2.5628,2.5624,2.5651,2.5656,2.5649,2.567,2.566,2.5682,2.5676,2.5718,2.571,2.5715,2.5712,2.5743,2.5739,2.5847,2.586,2.5764,2.5765,2.5766,0,2.5596,2.5621,2.5626,2.5639,2.5643,2.5664,2.5675,2.5662,2.5675,2.5685,2.5703,2.5722,2.5736,2.577,2.5766,2.5782,2.5773,2.581,2.5775,2.5778,2.5772,2.5769,2.5771,2.5816,2.5817,2.5818,2.5819,0,2.5684,2.5679,2.5697,2.5713,2.5727,2.5739,2.5748,2.576,2.5747,2.5762,2.5783,2.5794,2.5815,2.5834,2.5848,2.585,2.5832,2.583,2.5838,2.5841,2.5842,2.584,2.5732,2.5827,2.5827,2.5826,2.5826,2.5825,2.5749,2.5769,2.5776,2.5795,2.5801,2.5811,2.5829,2.5827,2.5845,2.5861,2.5853,2.5876,2.5882,2.5899,2.5903,2.5921,2.5906,2.5918,2.592,2.5923,2.5926,2.5841,2.5924,2.5923,2.5923,2.5923,2.5923,0,2.5834,2.5837,2.5855,2.5869,2.5884,2.5867,2.5877,2.5891,2.5912,2.5919,2.5933,2.5956,2.5974,2.5972,2.5988,2.6002,2.5994,2.6006,2.6004,2.6005,2.5939,2.593,2.6012,2.6012,2.6012,2.6012,2.6012,2.6012,2.588,2.5914,2.5909,2.5945,2.5947,2.5971,2.5977,2.5986,2.5991,2.6018,2.6032,2.6031,2.6034,2.605,2.6064,2.6063,2.6069,2.6084,2.608,2.6018,2.6009,2.6001,2.5992,2.6086,2.6086,2.6143,2.6144,2.6144]}]]